Tracking 23940 objects as of 2-Dec-2021
HD Live streaming from Space Station
objects crossing your sky now

STARLINK-3136

Track STARLINK-3136 now!
10-day predictions
STARLINK-3136 is classified as:


NORAD ID: 49443
Int'l Code: 2021-104AM
Perigee: 355.9 km
Apogee: 357.6 km
Inclination: 53.2 °
Period: 91.5 minutes
Semi major axis: 6727 km
RCS: Unknown
Launch date: November 13, 2021
Source: United States (US)
Launch site: AIR FORCE EASTERN TEST RANGE (AFETR)
aabbcc
Your satellite tracking list
Your tracking list is empty




NASA's NSSDC Master Catalog

Two Line Element Set (TLE):
1 49443U 21104AM  21335.91667824  .00013981  00000-0  10366-3 0  9990
2 49443  53.2186  42.0137 0001315  10.2914  79.1164 15.73247027  3576
Source of the keplerian elements: AFSPC